{"data":{"norad_id":67570,"epoch":"2026-05-25T03:15:02.352096Z","epoch_age_seconds":67326,"freshness":"FRESH","line1":"1 67570U 26016K   26145.13544389  .00018634  00000+0  57822-3 0  9993","line2":"2 67570  97.2854 205.5281 0000110 155.9808 204.1439 15.33437791 18581","mean_motion":15.33437791,"eccentricity":1.1e-5,"inclination_deg":97.2854,"raan_deg":205.5281,"arg_perigee_deg":155.9808,"mean_anomaly_deg":204.1439,"bstar":0.00057822,"rev_number":1858,"period_min":93.906646128822,"perigee_km":465.48934275634,"apogee_km":465.63990419205,"semimajor_km":6843.7016234742,"source":"CELESTRAK","updated_at":"2026-05-25T13:38:21.614674Z"}}